カタログに戻る

SHIYAN 20C

SY-20C

運用中科学LEO
NORAD 54214·PAYLOAD·🇨🇳 China

打ち上げ Oct 29, 2022 から Jiuquan Satellite Launch Center

Loading…

次のパス (今後24時間)

TLE

最新Source: Space-Track

元期: Sep 14, 2026, 15:02 UTC

1 54214U 22142A   26257.62648560 -.00000023  00000-0  44023-4 0  9999
2 54214  59.9984   4.7450 0021564  40.8068 319.4577 14.29573844202485

AllMySatでSHIYAN 20Cをリアルタイム追跡

Download on the App Store